| time (UTC) | temp F | wind direction | speed knots | gust knots | rain 1hr in | rain 24hr in | rain mn in | humidity % | barometer mb |
| 20260502123051 | 41 | 360 | 0.0 | 2.6 | 0.00 | 0.01 | 0.00 | 94 | 1016.7 |
| 20260502121554 | 38 | 0 | 0.0 | 0.0 | 0.00 | 0.01 | 0.00 | 95 | 1017.0 |
| 20260502120111 | 36 | 0 | 0.0 | 0.0 | 0.00 | 0.01 | 0.00 | 94 | 1016.9 |
| 20260502114601 | 34 | 0 | 0.0 | 0.0 | 0.00 | 0.01 | 0.00 | 94 | 1016.8 |
| 20260502113057 | 33 | 0 | 0.0 | 0.0 | 0.00 | 0.01 | 0.00 | 93 | 1016.7 |
| 20260502111559 | 32 | 0 | 0.0 | 0.0 | 0.00 | 0.01 | 0.00 | 92 | 1016.6 |
| 20260502110055 | 32 | 0 | 0.0 | 0.0 | 0.00 | 0.01 | 0.00 | 92 | 1016.6 |
| 20260502104558 | 32 | 0 | 0.0 | 0.0 | 0.00 | 0.01 | 0.00 | 92 | 1016.5 |
| 20260502103101 | 32 | 0 | 0.0 | 0.0 | 0.00 | 0.01 | 0.00 | 92 | 1016.8 |
| 20260502101554 | 32 | 0 | 0.0 | 0.0 | 0.00 | 0.01 | 0.00 | 91 | 1016.8 |
| 20260502100112 | 32 | 0 | 0.0 | 0.0 | 0.00 | 0.01 | 0.00 | 92 | 1016.7 |
| 20260502070057 | 35 | 0 | 0.0 | 0.0 | 0.00 | 0.01 | 0.00 | 90 | 1016.5 |
| 20260502064606 | 35 | 0 | 0.0 | 0.0 | 0.00 | 0.01 | 0.00 | 89 | 1016.5 |
| 20260502063052 | 35 | 0 | 0.0 | 0.0 | 0.00 | 0.01 | 0.00 | 88 | 1016.8 |
| 20260502061554 | 36 | 0 | 0.0 | 0.0 | 0.00 | 0.01 | 0.00 | 88 | 1017.0 |
| 20260502060058 | 36 | 0 | 0.0 | 0.0 | 0.00 | 0.01 | 0.00 | 88 | 1017.1 |
| 20260502054552 | 37 | 0 | 0.0 | 0.0 | 0.00 | 0.01 | 0.00 | 87 | 1017.3 |
| 20260502053053 | 37 | 0 | 0.0 | 0.0 | 0.00 | 0.01 | 0.00 | 87 | 1017.2 |
| 20260502051634 | 38 | 0 | 0.0 | 0.0 | 0.00 | 0.01 | 0.00 | 87 | 1017.1 |
| 20260502050059 | 38 | 0 | 0.0 | 0.0 | 0.00 | 0.01 | 0.00 | 87 | 1017.2 |
| 20260502044602 | 39 | 0 | 0.0 | 0.9 | 0.00 | 0.01 | 0.00 | 87 | 1017.4 |
| 20260502043054 | 39 | 0 | 0.0 | 0.9 | 0.00 | 0.01 | 0.00 | 85 | 1017.5 |
| 20260502041555 | 40 | 0 | 0.0 | 0.0 | 0.00 | 0.01 | 0.00 | 83 | 1017.5 |
| 20260502040058 | 41 | 0 | 0.0 | 0.0 | 0.00 | 0.01 | 0.00 | 83 | 1017.2 |
| 20260502034555 | 42 | 0 | 0.0 | 0.0 | 0.00 | 0.01 | 0.01 | 81 | 1017.0 |
| 20260502033055 | 42 | 0 | 0.0 | 0.9 | 0.00 | 0.01 | 0.01 | 81 | 1017.1 |
| 20260502031609 | 43 | 0 | 0.0 | 2.6 | 0.00 | 0.01 | 0.01 | 79 | 1017.2 |
| 20260502030056 | 44 | 0 | 0.0 | 1.7 | 0.00 | 0.01 | 0.01 | 77 | 1017.3 |
| 20260502024557 | 45 | 0 | 0.0 | 1.7 | 0.00 | 0.01 | 0.01 | 75 | 1017.3 |
| 20260502023055 | 45 | 360 | 0.0 | 0.0 | 0.00 | 0.01 | 0.01 | 73 | 1016.8 |
| 20260502021556 | 46 | 0 | 0.0 | 0.0 | 0.00 | 0.01 | 0.01 | 71 | 1016.5 |
| 20260502020105 | 47 | 0 | 0.0 | 1.7 | 0.00 | 0.01 | 0.01 | 70 | 1016.3 |
| 20260502014556 | 48 | 0 | 0.0 | 4.3 | 0.00 | 0.01 | 0.01 | 69 | 1016.2 |
| 20260502013055 | 48 | 360 | 0.9 | 5.2 | 0.00 | 0.01 | 0.01 | 68 | 1016.0 |
| 20260502011555 | 49 | 360 | 2.6 | 8.7 | 0.00 | 0.01 | 0.01 | 67 | 1015.7 |
| 20260502010058 | 49 | 360 | 2.6 | 9.6 | 0.00 | 0.01 | 0.01 | 65 | 1015.4 |
| 20260502004555 | 50 | 360 | 2.6 | 7.8 | 0.00 | 0.01 | 0.01 | 64 | 1015.0 |
| 20260502003055 | 50 | 360 | 3.5 | 10.4 | 0.00 | 0.01 | 0.01 | 64 | 1015.0 |
| 20260502001559 | 51 | 360 | 0.9 | 8.7 | 0.00 | 0.01 | 0.01 | 66 | 1014.7 |
| 20260502000054 | 51 | 360 | 3.5 | 12.2 | 0.00 | 0.01 | 0.01 | 69 | 1014.2 |
| 20260501234556 | 51 | 0 | 0.0 | 1.7 | 0.00 | 0.01 | 0.01 | 75 | 1013.8 |
| 20260501233059 | 51 | 0 | 0.0 | 1.7 | 0.00 | 0.01 | 0.01 | 74 | 1013.6 |
| 20260501231600 | 51 | 0 | 0.0 | 2.6 | 0.00 | 0.01 | 0.01 | 73 | 1013.4 |
| 20260501230055 | 51 | 0 | 0.0 | 1.7 | 0.00 | 0.01 | 0.01 | 74 | 1013.4 |
| 20260501224557 | 51 | 0 | 0.0 | 1.7 | 0.00 | 0.01 | 0.01 | 74 | 1013.6 |
| 20260501223059 | 51 | 0 | 0.0 | 0.9 | 0.00 | 0.01 | 0.01 | 76 | 1013.6 |
| 20260501221551 | 51 | 0 | 0.9 | 5.2 | 0.00 | 0.01 | 0.01 | 74 | 1013.3 |
| 20260501220055 | 51 | 360 | 1.7 | 5.2 | 0.00 | 0.01 | 0.01 | 73 | 1013.8 |
| 20260501214603 | 52 | 360 | 1.7 | 5.2 | 0.00 | 0.01 | 0.01 | 73 | 1013.6 |
| 20260501213100 | 52 | 360 | 0.9 | 9.6 | 0.00 | 0.01 | 0.01 | 70 | 1013.2 |
| 20260501211551 | 53 | 360 | 1.7 | 11.3 | 0.00 | 0.01 | 0.01 | 71 | 1013.2 |
| 20260501210054 | 53 | 360 | 2.6 | 9.6 | 0.00 | 0.01 | 0.01 | 71 | 1013.0 |
| 20260501204549 | 54 | 360 | 4.3 | 17.4 | 0.00 | 0.01 | 0.01 | 73 | 1013.1 |
| 20260501203053 | 54 | 360 | 5.2 | 12.2 | 0.01 | 0.01 | 0.01 | 74 | 1012.7 |
| 20260501201552 | 54 | 360 | 1.7 | 7.0 | 0.01 | 0.01 | 0.01 | 77 | 1012.6 |
| 20260501200054 | 54 | 360 | 2.6 | 7.0 | 0.01 | 0.01 | 0.01 | 75 | 1012.5 |
| 20260501194601 | 55 | 360 | 0.9 | 13.0 | 0.01 | 0.02 | 0.01 | 75 | 1012.4 |
| 20260501193054 | 57 | 360 | 4.3 | 12.2 | 0.00 | 0.01 | 0.00 | 60 | 1012.4 |
| 20260501191603 | 60 | 360 | 2.6 | 13.9 | 0.00 | 0.01 | 0.00 | 52 | 1012.0 |
| 20260501190113 | 61 | 360 | 1.7 | 7.0 | 0.00 | 0.01 | 0.00 | 45 | 1011.7 |
| 20260501184556 | 63 | 360 | 0.9 | 9.6 | 0.00 | 0.01 | 0.00 | 44 | 1011.5 |
| 20260501183054 | 63 | 0 | 1.7 | 9.6 | 0.00 | 0.01 | 0.00 | 42 | 1011.5 |
| 20260501181553 | 64 | 64 | 1.7 | 9.6 | 0.00 | 0.01 | 0.00 | 43 | 1011.6 |
| 20260501180052 | 62 | 360 | 0.9 | 3.5 | 0.00 | 0.01 | 0.00 | 46 | 1011.8 |
| 20260501174609 | 62 | 360 | 0.9 | 4.3 | 0.00 | 0.01 | 0.00 | 43 | 1012.0 |
| 20260501173105 | 61 | 360 | 0.9 | 5.2 | 0.00 | 0.01 | 0.00 | 47 | 1012.0 |
| 20260501171558 | 61 | 360 | 0.9 | 4.3 | 0.00 | 0.01 | 0.00 | 44 | 1012.2 |
| 20260501170052 | 60 | 360 | 0.9 | 7.0 | 0.00 | 0.01 | 0.00 | 46 | 1012.4 |
| 20260501164551 | 60 | 360 | 1.7 | 7.0 | 0.00 | 0.01 | 0.00 | 45 | 1012.5 |
| 20260501163053 | 58 | 360 | 0.9 | 3.5 | 0.00 | 0.01 | 0.00 | 46 | 1012.7 |
| 20260501161557 | 58 | 360 | 0.0 | 4.3 | 0.00 | 0.01 | 0.00 | 51 | 1012.7 |
| 20260501160057 | 57 | 360 | 0.9 | 3.5 | 0.00 | 0.01 | 0.00 | 56 | 1013.0 |
| 20260501154606 | 57 | 0 | 0.9 | 5.2 | 0.00 | 0.01 | 0.00 | 56 | 1013.0 |
| 20260501153057 | 57 | 360 | 0.9 | 4.3 | 0.00 | 0.01 | 0.00 | 56 | 1013.3 |
| 20260501151607 | 57 | 0 | 0.9 | 3.5 | 0.00 | 0.01 | 0.00 | 55 | 1013.4 |
| 20260501150051 | 56 | 0 | 0.9 | 7.8 | 0.00 | 0.01 | 0.00 | 56 | 1013.6 |